Вернуться в каталог

STARLINK-38212

АктивенСвязьSSO
NORAD 100267·PAYLOAD·🇺🇸 United States

Запущен Aug 8, 2026 с Vandenberg Space Force Base

Loading…

Ближайшие Пролёты (ближайшие 24 часа)

TLE

СвежийSource: Space-Track

Эпоха: Sep 14, 2026, 15:52 UTC

1 A0267U 26181X   26257.66155765  .00164418  00000-0  10794-2 0  9993
2 A0267  97.2828 301.0055 0000994 145.9672 214.1657 15.75247629  7037

Отслеживайте STARLINK-38212 в реальном времени с AllMySat

Download on the App Store